When you browse on this site, cookies collect data to enhance your experience and personalize the content and advertising you see.
Visit our Privacy Policy to learn more. By continuing to use the site, you agree to this use of cookies and data.
  • In France
  • List of Countries
  • For 7 days
  • Water Temperature
  • Satellite Maps
  • Weather Map
  • Weather Widgets
  • user-avatar
    Login

    Hourly Weather Sucre

    Today, 23 March, Saturday

    Time Temperature Precipitation Wind Pressure Humidity
    00:00 +13°C° 0 mm 2 mps 543 mmHg 83%
    01:00 +13°C° 0 mm 2 mps 542 mmHg 83%
    02:00 +13°C° 0 mm 2 mps 542 mmHg 83%
    03:00 +13°C° 0 mm 1 mps 542 mmHg 84%
    04:00 +12°C° 0 mm 1 mps 542 mmHg 84%
    05:00 +12°C° 0 mm 1 mps 542 mmHg 85%
    06:00 +12°C° 0 mm 1 mps 542 mmHg 82%
    07:00 +12°C° 0 mm 1 mps 542 mmHg 80%
    08:00 +12°C° 0 mm 1 mps 543 mmHg 78%
    09:00 +14°C° 0 mm 1 mps 543 mmHg 71%
    10:00 +15°C° 0 mm 2 mps 544 mmHg 63%
    11:00 +17°C° 0 mm 2 mps 544 mmHg 56%
    12:00 +18°C° 0 mm 3 mps 544 mmHg 51%
    13:00 +19°C° 0 mm 3 mps 544 mmHg 46%
    14:00 +20°C° 0 mm 4 mps 544 mmHg 41%
    15:00 +20°C° 0 mm 4 mps 543 mmHg 41%
    16:00 +20°C° 0 mm 4 mps 543 mmHg 41%
    17:00 +20°C° 0 mm 3 mps 543 mmHg 42%
    18:00 +18°C° 0 mm 3 mps 542 mmHg 47%
    19:00 +17°C° 0 mm 2 mps 542 mmHg 53%
    20:00 +16°C° 0 mm 2 mps 542 mmHg 59%
    21:00 +15°C° 0 mm 2 mps 542 mmHg 63%
    22:00 +14°C° 0 mm 2 mps 542 mmHg 68%
    23:00 +14°C° 0 mm 2 mps 542 mmHg 73%

    Tomorrow, 24 March, Sunday

    Time Temperature Precipitation Wind Pressure Humidity
    00:00 +13°C° 0 mm 1 mps 542 mmHg 76%
    01:00 +13°C° 0 mm 1 mps 542 mmHg 79%
    02:00 +13°C° 0 mm 1 mps 541 mmHg 82%
    03:00 +13°C° 0 mm 1 mps 541 mmHg 82%
    04:00 +13°C° 0 mm 1 mps 541 mmHg 83%
    05:00 +13°C° 0 mm 1 mps 541 mmHg 83%
    06:00 +13°C° 0 mm 1 mps 541 mmHg 82%
    07:00 +13°C° 0 mm 1 mps 542 mmHg 81%
    08:00 +13°C° 0 mm 1 mps 542 mmHg 80%
    09:00 +14°C° 0 mm 1 mps 542 mmHg 77%
    10:00 +15°C° 0 mm 2 mps 543 mmHg 73%
    11:00 +15°C° 0 mm 2 mps 543 mmHg 70%
    12:00 +16°C° 0.1 mm 2 mps 543 mmHg 68%
    13:00 +16°C° 0.1 mm 2 mps 542 mmHg 66%
    14:00 +17°C° 0.1 mm 2 mps 542 mmHg 63%
    15:00 +17°C° 0.1 mm 2 mps 542 mmHg 64%
    16:00 +16°C° 0.1 mm 2 mps 542 mmHg 64%
    17:00 +16°C° 0.1 mm 2 mps 541 mmHg 65%
    18:00 +15°C° 0.3 mm 2 mps 542 mmHg 69%
    19:00 +15°C° 0.3 mm 2 mps 542 mmHg 74%
    20:00 +14°C° 0.3 mm 2 mps 542 mmHg 79%
    21:00 +14°C° 0.5 mm 2 mps 542 mmHg 80%
    22:00 +13°C° 0.5 mm 2 mps 542 mmHg 81%
    23:00 +13°C° 0.5 mm 1 mps 543 mmHg 82%

    Day after tomorrow, 25 March, Monday

    Time Temperature Precipitation Wind Pressure Humidity
    00:00 +12°C° 1.1 mm 1 mps 542 mmHg 84%
    01:00 +12°C° 1.1 mm 1 mps 542 mmHg 85%
    02:00 +12°C° 1.1 mm 1 mps 541 mmHg 86%
    03:00 +12°C° 0.4 mm 1 mps 541 mmHg 86%
    04:00 +12°C° 0.4 mm 1 mps 541 mmHg 86%
    05:00 +12°C° 0.4 mm 1 mps 541 mmHg 86%
    06:00 +12°C° 0.7 mm 1 mps 541 mmHg 86%
    07:00 +11°C° 0.7 mm 0 mps 541 mmHg 86%
    08:00 +11°C° 0.7 mm 0 mps 542 mmHg 85%
    09:00 +12°C° 0.5 mm 1 mps 542 mmHg 82%
    10:00 +13°C° 0.5 mm 1 mps 542 mmHg 78%
    11:00 +13°C° 0.5 mm 1 mps 543 mmHg 75%
    12:00 +14°C° 0.3 mm 2 mps 542 mmHg 70%
    13:00 +15°C° 0.3 mm 2 mps 542 mmHg 64%
    14:00 +16°C° 0.3 mm 2 mps 542 mmHg 59%
    15:00 +16°C° 0.1 mm 2 mps 542 mmHg 59%
    16:00 +16°C° 0.1 mm 2 mps 542 mmHg 58%
    17:00 +17°C° 0.1 mm 2 mps 541 mmHg 58%
    18:00 +16°C° 0.1 mm 2 mps 541 mmHg 64%
    19:00 +15°C° 0.1 mm 2 mps 541 mmHg 70%
    20:00 +14°C° 0.1 mm 2 mps 541 mmHg 76%
    21:00 +14°C° 0.2 mm 1 mps 541 mmHg 79%
    22:00 +13°C° 0.2 mm 1 mps 542 mmHg 82%
    23:00 +13°C° 0.2 mm 1 mps 542 mmHg 85%

    26 March, Tuesday

    Time Temperature Precipitation Wind Pressure Humidity
    00:00 +13°C° 0.1 mm 1 mps 541 mmHg 86%
    01:00 +12°C° 0.1 mm 1 mps 541 mmHg 88%
    02:00 +12°C° 0.1 mm 1 mps 541 mmHg 89%
    03:00 +12°C° 0 mm 1 mps 540 mmHg 90%
    04:00 +12°C° 0 mm 1 mps 540 mmHg 91%
    05:00 +12°C° 0 mm 1 mps 540 mmHg 92%
    06:00 +12°C° 0.1 mm 1 mps 541 mmHg 89%
    07:00 +12°C° 0.1 mm 1 mps 542 mmHg 87%
    08:00 +13°C° 0.1 mm 1 mps 542 mmHg 85%
    09:00 +13°C° 0.2 mm 1 mps 543 mmHg 80%
    10:00 +14°C° 0.2 mm 2 mps 543 mmHg 75%
    11:00 +15°C° 0.2 mm 2 mps 544 mmHg 70%
    12:00 +15°C° 0.5 mm 2 mps 543 mmHg 72%
    13:00 +14°C° 0.5 mm 3 mps 542 mmHg 73%
    14:00 +14°C° 0.5 mm 3 mps 542 mmHg 75%
    15:00 +13°C° 0.5 mm 3 mps 541 mmHg 77%
    16:00 +13°C° 0.5 mm 2 mps 541 mmHg 80%
    17:00 +13°C° 0.5 mm 2 mps 541 mmHg 83%
    18:00 +13°C° 0.5 mm 2 mps 541 mmHg 84%
    19:00 +12°C° 0.5 mm 2 mps 542 mmHg 86%
    20:00 +12°C° 0.5 mm 2 mps 542 mmHg 88%
    21:00 +12°C° 0.4 mm 2 mps 542 mmHg 88%
    22:00 +12°C° 0.4 mm 2 mps 543 mmHg 89%
    23:00 +10°C° 0.4 mm 2 mps 543 mmHg 90%

    27 March, Wednesday

    Time Temperature Precipitation Wind Pressure Humidity
    00:00 +11°C° 0.4 mm 1 mps 543 mmHg 90%
    01:00 +11°C° 0.4 mm 1 mps 542 mmHg 90%
    02:00 +11°C° 0.4 mm 1 mps 542 mmHg 91%
    03:00 +11°C° 0.3 mm 1 mps 542 mmHg 90%
    04:00 +11°C° 0.3 mm 1 mps 542 mmHg 90%
    05:00 +11°C° 0.3 mm 1 mps 542 mmHg 90%
    06:00 +11°C° 0.3 mm 1 mps 542 mmHg 90%
    07:00 +11°C° 0.3 mm 1 mps 543 mmHg 89%
    08:00 +11°C° 0.3 mm 1 mps 543 mmHg 89%
    09:00 +10°C° 0.1 mm 2 mps 544 mmHg 86%
    10:00 +12°C° 0.1 mm 2 mps 544 mmHg 83%
    11:00 +12°C° 0.1 mm 2 mps 544 mmHg 81%
    12:00 +13°C° 0.1 mm 2 mps 544 mmHg 76%
    13:00 +13°C° 0.1 mm 2 mps 544 mmHg 72%
    14:00 +14°C° 0.1 mm 2 mps 543 mmHg 68%
    15:00 +14°C° 0 mm 2 mps 543 mmHg 68%
    16:00 +14°C° 0 mm 2 mps 543 mmHg 67%
    17:00 +15°C° 0 mm 2 mps 543 mmHg 67%
    18:00 +14°C° 0 mm 2 mps 543 mmHg 71%
    19:00 +13°C° 0 mm 2 mps 543 mmHg 75%
    20:00 +12°C° 0 mm 2 mps 543 mmHg 80%
    21:00 +12°C° 0 mm 1 mps 543 mmHg 82%
    22:00 +12°C° 0 mm 1 mps 543 mmHg 83%
    23:00 +11°C° 0 mm 1 mps 543 mmHg 85%

    28 March, Thursday

    Time Temperature Precipitation Wind Pressure Humidity
    00:00 +11°C° 0 mm 1 mps 543 mmHg 86%
    01:00 +11°C° 0 mm 1 mps 543 mmHg 87%
    02:00 +11°C° 0 mm 1 mps 543 mmHg 88%
    03:00 +11°C° 0 mm 1 mps 543 mmHg 88%
    04:00 +11°C° 0 mm 1 mps 542 mmHg 89%
    05:00 +11°C° 0 mm 1 mps 542 mmHg 89%
    06:00 +11°C° 0 mm 1 mps 543 mmHg 87%
    07:00 +11°C° 0 mm 1 mps 543 mmHg 84%
    08:00 +11°C° 0 mm 0 mps 544 mmHg 82%
    09:00 +13°C° 0 mm 1 mps 544 mmHg 74%
    10:00 +15°C° 0 mm 2 mps 545 mmHg 67%
    11:00 +17°C° 0 mm 2 mps 545 mmHg 59%
    12:00 +17°C° 0 mm 3 mps 545 mmHg 57%
    13:00 +18°C° 0 mm 3 mps 545 mmHg 55%
    14:00 +19°C° 0 mm 3 mps 545 mmHg 53%
    15:00 +18°C° 0 mm 3 mps 544 mmHg 55%
    16:00 +18°C° 0 mm 3 mps 544 mmHg 57%
    17:00 +17°C° 0 mm 3 mps 544 mmHg 59%
    18:00 +17°C° 0 mm 2 mps 544 mmHg 62%
    19:00 +16°C° 0 mm 2 mps 544 mmHg 66%
    20:00 +15°C° 0 mm 1 mps 544 mmHg 69%
    21:00 +14°C° 0 mm 1 mps 544 mmHg 72%
    22:00 +14°C° 0 mm 1 mps 544 mmHg 75%
    23:00 +13°C° 0 mm 1 mps 544 mmHg 78%
    Show more